GW5027 Weather Reports


Display with metric or nautical units.
time (UTC)temp
F
wind
direction
speed
MPH
gust
MPH
rain 1hr
in
rain 24hr
in
rain mn
in
humidity
%
barometer
mb
20260504160106 59 275 2.0 8.0 0.00 0.38 0.33 80 1014.4
20260504151059 59 286 3.0 11.0 0.00 0.38 0.33 82 1014.3
20260504150600 58 271 4.0 9.0 0.00 0.38 0.33 81 1014.3
20260504150501 58 283 5.0 10.0 0.00 0.38 0.33 82 1018.9
20260504141101 57 328 3.0 8.0 0.01 0.38 0.33 93 1014.5
20260504141001 57 281 3.0 8.0 0.01 0.38 0.33 94 1019.0
20260504140601 56 307 3.0 8.0 0.01 0.38 0.33 93 1014.4
20260504140500 56 279 3.0 8.0 0.01 0.38 0.33 94 1018.9
20260504140112 56 288 3.0 8.0 0.01 0.38 0.33 93 1014.4
20260504130604 55 247 2.0 7.0 0.05 0.39 0.32 94 1014.8
20260504130501 55 219 3.0 7.0 0.06 0.39 0.32 94 1019.4
20260504120121 56 288 4.0 12.0 0.04 0.32 0.26 88 1014.8
20260504110600 57 233 6.0 12.0 0.00 0.28 0.22 87 1014.7
20260504110112 57 219 6.0 12.0 0.00 0.28 0.22 87 1014.7
20260504100600 57 276 5.0 10.0 0.07 0.28 0.22 90 1014.4
20260504100501 57 309 4.0 10.0 0.08 0.28 0.22 90 1019.0
20260504100113 57 277 4.0 10.0 0.09 0.28 0.22 90 1014.5
20260504082002 57 268 5.0 10.0 0.02 0.17 0.10 86 1018.3
20260504081502 57 261 4.0 10.0 0.02 0.15 0.09 86 1018.4
20260504081003 57 290 3.0 10.0 0.02 0.15 0.09 86 1018.7
20260504080501 57 276 2.0 10.0 0.02 0.15 0.09 87 1014.1
20260504050502 58 261 1.0 3.0 0.00 0.07 0.01 86 1017.2
20260504050005 58 271 1.0 4.0 0.00 0.07 0.01 86 1017.2
20260504050002 58 271 0.0 4.0 0.00 0.07 0.01 86 1012.7
20260504045502 58 235 0.0 4.0 0.00 0.07 0.01 85 1017.1
20260504045004 58 247 0.0 3.0 0.00 0.07 0.01 86 1017.0
20260504045001 58 247 0.0 3.0 0.00 0.07 0.01 86 1012.5
20260504044502 58 294 1.0 3.0 0.00 0.07 0.01 85 1017.1
20260504044002 58 250 1.0 3.0 0.00 0.07 0.01 85 1017.1
20260504043502 58 160 1.0 3.0 0.00 0.07 0.01 85 1017.0
20260504043005 58 269 1.0 5.0 0.00 0.07 0.01 85 1017.0
20260504043002 58 269 1.0 5.0 0.00 0.07 0.01 85 1012.5
20260504042502 58 220 2.0 5.0 0.00 0.07 0.01 86 1017.1
20260504042500 58 220 0.0 5.0 0.00 0.07 0.01 86 1012.6
20260504042001 58 243 2.0 5.0 0.00 0.07 0.01 86 1012.6
20260504041503 58 229 1.0 5.0 0.00 0.07 0.01 86 1012.7
20260504041002 58 221 2.0 8.0 0.00 0.07 0.01 86 1017.2
20260504040501 58 254 1.0 8.0 0.00 0.07 0.01 86 1012.7
20260504040006 58 270 2.0 5.0 0.00 0.07 0.01 87 1012.7
20260504035502 58 278 2.0 4.0 0.00 0.07 0.01 87 1017.3
20260504035002 58 236 2.0 4.0 0.01 0.07 0.01 87 1017.3
20260504034501 58 251 1.0 5.0 0.01 0.07 0.01 87 1012.7
20260504034002 58 262 2.0 6.0 0.01 0.07 0.01 87 1017.2
20260504033501 58 250 2.0 6.0 0.01 0.07 0.01 87 1017.3
20260504033003 58 204 2.0 5.0 0.01 0.07 0.01 88 1017.3
20260504032502 57 279 2.0 5.0 0.01 0.07 0.01 88 1017.4
20260504032004 57 300 2.0 5.0 0.01 0.07 0.01 88 1017.4
20260504032002 57 300 3.0 5.0 0.01 0.07 0.01 88 1012.9
20260504031504 58 240 2.0 5.0 0.01 0.07 0.01 87 1013.0
20260504031502 58 240 2.0 5.0 0.01 0.07 0.01 87 1017.5
20260504031005 58 262 1.0 5.0 0.01 0.07 0.01 87 1013.0
20260504031002 58 262 2.0 5.0 0.01 0.07 0.01 87 1017.5
20260504030501 58 276 2.0 4.0 0.01 0.07 0.01 86 1017.6
20260504030006 58 267 2.0 5.0 0.01 0.07 0.01 86 1017.5
20260504030003 58 267 1.0 5.0 0.01 0.07 0.01 86 1013.0
20260504025501 58 274 2.0 7.0 0.01 0.07 0.01 85 1013.0
20260504025002 58 250 3.0 7.0 0.00 0.06 0.00 85 1013.0
20260504024504 59 231 3.0 8.0 0.00 0.06 0.00 83 1013.0
20260504024005 59 293 2.0 8.0 0.00 0.06 0.00 83 1013.0
20260504023502 59 280 1.0 2.0 0.00 0.06 0.00 82 1017.5
20260504023003 59 257 1.0 3.0 0.00 0.06 0.00 83 1017.6
20260504023001 59 257 0.0 3.0 0.00 0.06 0.00 83 1013.0
20260504022504 59 286 1.0 3.0 0.00 0.06 0.00 82 1017.6
20260504022501 59 286 1.0 3.0 0.00 0.06 0.00 82 1013.1
20260504022003 59 284 0.0 2.0 0.00 0.06 0.00 82 1013.0
20260504021502 59 214 0.0 2.0 0.00 0.06 0.00 82 1017.5
20260504021002 59 193 1.0 2.0 0.00 0.06 0.00 82 1017.5
20260504020502 59 224 1.0 3.0 0.00 0.06 0.00 82 1017.4
20260504020006 59 135 1.0 3.0 0.00 0.06 0.00 82 1017.4
20260504020004 59 135 1.0 3.0 0.00 0.06 0.00 82 1012.9
20260504015502 59 203 0.0 3.0 0.00 0.06 0.00 82 1017.4
20260504015002 59 120 0.0 2.0 0.00 0.06 0.00 82 1017.4
20260504014504 59 277 0.0 3.0 0.00 0.06 0.00 82 1017.4
20260504014501 59 277 0.0 3.0 0.00 0.06 0.00 82 1012.9
20260504014002 58 233 1.0 3.0 0.00 0.06 0.00 82 1017.4
20260504013502 59 245 1.0 6.0 0.00 0.06 0.00 82 1017.5
20260504013115 59 236 2.0 6.0 0.00 0.06 0.00 82 1013.0
20260504013005 59 253 2.0 6.0 0.00 0.06 0.00 81 1017.5
20260504012601 59 268 2.0 6.0 0.00 0.06 0.00 81 1012.9
20260504012504 59 245 2.0 6.0 0.00 0.06 0.00 81 1017.5
20260504012502 59 245 2.0 6.0 0.00 0.06 0.00 81 1012.9
20260504012103 59 284 1.0 7.0 0.00 0.06 0.00 82 1012.9
20260504012001 59 231 3.0 7.0 0.00 0.06 0.00 82 1017.5
20260504011502 59 260 2.0 7.0 0.00 0.06 0.00 82 1017.6
20260504011102 58 250 2.0 5.0 0.00 0.06 0.00 83 1013.1
20260504011001 58 249 1.0 5.0 0.00 0.06 0.00 83 1017.6
20260504010600 58 249 1.0 5.0 0.00 0.06 0.00 83 1013.0
20260504010504 58 247 2.0 5.0 0.00 0.06 0.00 83 1017.5
20260504010502 58 247 2.0 5.0 0.00 0.06 0.00 83 1013.0
20260504010104 58 202 0.0 6.0 0.00 0.06 0.00 84 1012.9
20260504010002 58 108 1.0 6.0 0.00 0.06 0.00 84 1012.9
20260504005600 58 267 2.0 6.0 0.00 0.06 0.00 84 1012.8
20260504005502 58 276 2.0 6.0 0.00 0.06 0.00 85 1017.4
20260504005100 58 259 1.0 5.0 0.00 0.06 0.00 85 1012.9
20260504005001 58 270 2.0 5.0 0.00 0.06 0.00 85 1017.4
20260504004622 58 291 1.0 5.0 0.00 0.06 0.00 85 1012.8
20260504004500 58 295 2.0 5.0 0.00 0.06 0.00 85 1017.4
20260504004059 58 267 2.0 5.0 0.00 0.06 0.00 85 1012.8
20260504004001 58 300 2.0 5.0 0.00 0.06 0.00 85 1017.2
20260504003559 58 279 1.0 8.0 0.00 0.06 0.00 86 1012.7
20260504003502 58 285 3.0 8.0 0.00 0.06 0.00 86 1017.2
20260504003103 58 267 3.0 8.0 0.00 0.06 0.00 86 1012.6
20260504003001 58 259 3.0 8.0 0.00 0.06 0.00 86 1017.3
20260504002601 58 248 3.0 8.0 0.00 0.06 0.00 87 1012.6
20260504002501 58 266 4.0 8.0 0.00 0.06 0.00 87 1017.1
20260504002104 58 229 4.0 12.0 0.00 0.06 0.00 86 1012.5
20260504002003 59 255 4.0 12.0 0.00 0.06 0.00 86 1017.0
20260504001607 58 263 4.0 12.0 0.00 0.06 0.00 86 1012.6
20260504001501 58 259 4.0 12.0 0.00 0.06 0.00 86 1017.1
20260504001102 59 293 2.0 8.0 0.00 0.06 0.00 86 1012.6
20260504001003 58 272 3.0 8.0 0.00 0.06 0.00 86 1017.1
20260504000600 59 257 3.0 7.0 0.00 0.06 0.00 86 1012.7
20260504000501 59 229 3.0 7.0 0.00 0.06 0.00 86 1017.2
20260504000105 59 306 2.0 6.0 0.00 0.06 0.00 86 1012.7
20260504000006 59 282 3.0 10.0 0.00 0.06 0.00 85 1017.2
20260504000002 59 282 2.0 10.0 0.00 0.06 0.00 85 1012.7
20260503235604 59 224 2.0 11.0 0.00 0.06 0.00 85 1012.8
20260503235501 59 266 5.0 11.0 0.00 0.06 0.00 85 1017.3
20260503235103 59 253 6.0 11.0 0.00 0.06 0.00 85 1012.8
20260503235003 59 222 6.0 11.0 0.00 0.06 0.00 85 1017.4
20260503234600 59 249 4.0 12.0 0.00 0.06 0.00 85 1012.8
20260503234501 59 289 5.0 12.0 0.00 0.06 0.00 86 1017.3
20260503234100 59 285 4.0 12.0 0.00 0.06 0.00 85 1012.6
20260503233601 60 305 4.0 15.0 0.00 0.06 0.00 85 1012.5
20260503233101 60 253 5.0 15.0 0.00 0.06 0.00 84 1012.8
20260503233006 60 241 7.0 15.0 0.00 0.06 0.00 84 1017.3
20260503232600 60 288 7.0 15.0 0.00 0.06 0.00 85 1012.8
20260503232501 60 248 7.0 15.0 0.00 0.06 0.00 85 1017.4
20260503232101 60 300 5.0 16.0 0.00 0.06 0.00 86 1012.7
20260503232001 60 302 7.0 16.0 0.00 0.06 0.00 86 1017.2
20260503231602 59 265 7.0 20.0 0.00 0.06 0.00 87 1012.8
20260503231501 59 274 8.0 20.0 0.00 0.06 0.00 88 1017.3
20260503231104 59 217 8.0 20.0 0.00 0.06 0.00 88 1012.8
20260503231003 59 262 7.0 20.0 0.00 0.06 0.00 88 1017.4
20260503230601 59 236 5.0 12.0 0.00 0.06 0.00 89 1012.8
20260503230112 60 273 5.0 10.0 0.00 0.06 0.00 90 1012.6
20260503230005 60 259 3.0 9.0 0.00 0.06 0.00 90 1017.1
20260503230003 60 259 4.0 9.0 0.00 0.06 0.00 90 1012.6
20260503225600 60 258 3.0 8.0 0.00 0.06 0.00 90 1012.6
20260503225501 60 234 2.0 8.0 0.00 0.06 0.00 90 1017.1
20260503225100 60 289 2.0 6.0 0.00 0.06 0.00 91 1012.5
20260503225003 60 278 2.0 6.0 0.00 0.06 0.00 90 1016.9
20260503224600 60 273 2.0 4.0 0.00 0.06 0.00 91 1012.3
20260503224501 60 264 2.0 4.0 0.00 0.06 0.00 91 1016.8
20260503224100 60 284 1.0 3.0 0.00 0.06 0.00 91 1012.2
20260503223601 60 292 0.0 2.0 0.00 0.06 0.00 90 1012.1
20260503223501 60 318 0.0 1.0 0.00 0.06 0.00 90 1016.6
20260503223101 60 73 0.0 0.0 0.00 0.06 0.00 91 1012.0
20260503223003 60 73 0.0 0.0 0.00 0.06 0.00 91 1016.5
20260503222600 60 73 0.0 1.0 0.00 0.06 0.00 91 1012.0
20260503222501 60 73 0.0 1.0 0.00 0.06 0.00 91 1016.5
20260503222101 60 74 0.0 1.0 0.00 0.06 0.00 91 1012.1
20260503222003 60 74 0.0 1.0 0.00 0.06 0.00 90 1016.6
20260503221601 60 92 0.0 1.0 0.00 0.06 0.00 91 1012.2
20260503221501 60 93 0.0 1.0 0.00 0.06 0.00 91 1016.7
20260503221103 60 93 0.0 1.0 0.00 0.06 0.00 91 1012.2
20260503221002 60 93 0.0 1.0 0.00 0.06 0.00 91 1016.7
20260503220600 60 139 0.0 1.0 0.00 0.06 0.00 90 1012.2
20260503220501 60 137 0.0 1.0 0.00 0.06 0.00 90 1016.7
20260503220103 60 108 0.0 0.0 0.00 0.06 0.00 91 1012.2
20260503220004 60 108 0.0 0.0 0.00 0.06 0.00 91 1012.2
20260503215600 60 108 0.0 1.0 0.00 0.06 0.06 91 1012.2
20260503215501 60 109 0.0 1.0 0.00 0.06 0.06 91 1016.7
20260503215100 60 107 0.0 2.0 0.00 0.06 0.06 91 1012.2
20260503214609 60 113 0.0 2.0 0.00 0.06 0.06 91 1012.1
20260503214501 60 104 0.0 1.0 0.00 0.06 0.06 91 1016.7
20260503214100 60 181 0.0 2.0 0.00 0.06 0.06 91 1012.2
20260503214004 60 181 1.0 2.0 0.00 0.06 0.06 91 1016.7
20260503213600 60 107 0.0 2.0 0.00 0.06 0.06 91 1012.2
20260503213103 61 108 0.0 2.0 0.00 0.06 0.06 91 1012.2
20260503213002 61 108 0.0 2.0 0.00 0.06 0.06 91 1016.8
20260503212600 61 169 0.0 2.0 0.00 0.06 0.06 90 1012.1
20260503212103 61 136 1.0 2.0 0.00 0.06 0.06 90 1012.0
20260503211606 61 86 0.0 2.0 0.00 0.06 0.06 91 1012.1
20260503211503 61 124 1.0 2.0 0.00 0.06 0.06 90 1016.6
20260503211100 61 77 0.0 2.0 0.00 0.06 0.06 90 1012.1
20260503211002 61 88 0.0 2.0 0.00 0.06 0.06 90 1016.6
20260503210600 61 69 0.0 1.0 0.00 0.06 0.06 90 1012.1
20260503210501 61 84 0.0 1.0 0.00 0.06 0.06 90 1016.6
20260503210100 61 93 0.0 1.0 0.00 0.06 0.06 90 1012.1
20260503210006 61 90 1.0 1.0 0.00 0.06 0.06 90 1016.6
20260503210004 61 90 0.0 1.0 0.00 0.06 0.06 90 1012.1
20260503205600 61 78 0.0 1.0 0.00 0.06 0.06 90 1012.2
20260503205502 61 77 0.0 1.0 0.00 0.06 0.06 90 1016.7
20260503205101 61 125 0.0 1.0 0.00 0.06 0.06 90 1012.3
20260503205002 61 125 0.0 1.0 0.00 0.06 0.06 90 1016.8
20260503204502 61 125 0.0 1.0 0.01 0.06 0.06 90 1016.8
20260503204100 61 285 0.0 2.0 0.01 0.06 0.06 90 1012.3
20260503204002 61 285 0.0 2.0 0.01 0.06 0.06 90 1016.8
20260503203600 61 284 0.0 3.0 0.01 0.06 0.06 90 1012.3
20260503203502 61 283 1.0 3.0 0.01 0.06 0.06 90 1016.8
20260503203106 61 278 0.0 3.0 0.02 0.06 0.06 90 1012.2
20260503203002 61 278 1.0 3.0 0.02 0.06 0.06 90 1016.8
20260503202601 61 297 0.0 2.0 0.02 0.06 0.06 90 1012.3
20260503202501 61 311 1.0 2.0 0.02 0.06 0.06 90 1016.7
20260503202100 61 245 0.0 2.0 0.02 0.06 0.06 90 1012.3
20260503202003 61 244 0.0 2.0 0.02 0.06 0.06 90 1016.8
20260503201601 61 300 0.0 2.0 0.02 0.06 0.06 90 1012.2
20260503201501 61 301 0.0 2.0 0.02 0.06 0.06 90 1016.7
20260503201103 61 344 0.0 3.0 0.02 0.06 0.06 90 1012.0
20260503201003 61 344 1.0 3.0 0.02 0.06 0.06 90 1016.5
20260503200600 61 257 1.0 3.0 0.02 0.06 0.06 90 1012.0
20260503200100 61 295 1.0 3.0 0.02 0.06 0.06 90 1012.0
20260503200005 61 293 1.0 3.0 0.03 0.06 0.06 90 1016.5
20260503200003 61 293 1.0 3.0 0.03 0.06 0.06 90 1012.0
20260503195601 61 335 0.0 1.0 0.03 0.07 0.06 90 1011.9
20260503195100 62 336 0.0 0.0 0.04 0.07 0.06 90 1011.8
20260503195001 62 336 0.0 1.0 0.04 0.07 0.06 90 1016.4
20260503194601 62 271 0.0 1.0 0.03 0.06 0.06 90 1011.9
20260503194501 62 271 0.0 1.0 0.03 0.06 0.06 90 1016.4
20260503194100 62 271 0.0 2.0 0.03 0.06 0.06 90 1011.8
20260503193600 62 280 0.0 2.0 0.03 0.06 0.06 89 1011.8
20260503193101 62 271 0.0 4.0 0.02 0.06 0.05 89 1011.8
20260503193001 62 293 2.0 4.0 0.02 0.06 0.05 89 1016.2
20260503192600 62 297 2.0 6.0 0.02 0.06 0.05 89 1011.7
20260503192501 62 283 3.0 6.0 0.02 0.06 0.05 89 1016.3
20260503192100 62 276 2.0 6.0 0.02 0.06 0.05 88 1011.7
20260503192001 62 305 3.0 6.0 0.02 0.06 0.05 88 1016.2
20260503191601 62 287 2.0 7.0 0.02 0.06 0.05 88 1011.7
20260503191501 62 289 2.0 7.0 0.02 0.06 0.05 88 1016.1
20260503191101 62 212 2.0 7.0 0.02 0.06 0.05 87 1011.5
20260503191001 62 296 2.0 7.0 0.02 0.06 0.05 87 1016.0
20260503190605 62 257 1.0 4.0 0.02 0.05 0.04 86 1011.5
20260503190501 63 252 1.0 4.0 0.02 0.05 0.04 86 1016.0
20260503190101 63 236 1.0 5.0 0.01 0.04 0.03 86 1011.4
20260503190005 63 286 1.0 5.0 0.01 0.04 0.03 85 1015.9
20260503185601 63 188 1.0 5.0 0.02 0.05 0.03 85 1011.4
20260503185503 63 273 1.0 5.0 0.01 0.04 0.02 85 1015.9
20260503185100 63 262 1.0 3.0 0.01 0.04 0.02 85 1011.2
20260503185001 64 285 0.0 3.0 0.01 0.04 0.02 85 1015.7
20260503184609 64 214 0.0 1.0 0.01 0.04 0.02 85 1011.0
20260503184501 64 214 0.0 1.0 0.01 0.04 0.02 85 1015.5
20260503184100 64 214 0.0 2.0 0.01 0.04 0.02 84 1011.0
20260503184001 64 214 0.0 2.0 0.01 0.04 0.02 84 1015.5
20260503183600 64 70 0.0 2.0 0.01 0.04 0.02 84 1010.9
20260503183503 63 70 0.0 2.0 0.01 0.04 0.02 85 1015.4
20260503183103 63 66 0.0 2.0 0.01 0.04 0.02 85 1010.8
20260503183001 63 32 0.0 2.0 0.01 0.04 0.02 85 1015.3
20260503182603 63 322 0.0 2.0 0.01 0.04 0.02 84 1010.8
20260503182501 63 322 0.0 2.0 0.01 0.04 0.02 84 1015.3
20260503182100 63 346 0.0 5.0 0.01 0.04 0.02 84 1010.8
20260503182002 63 346 1.0 5.0 0.01 0.04 0.02 84 1015.3
20260503181603 64 14 0.0 5.0 0.01 0.04 0.02 83 1010.7
20260503181100 64 43 0.0 6.0 0.01 0.04 0.02 82 1010.8
20260503181001 64 75 2.0 6.0 0.01 0.04 0.02 81 1015.3
20260503180601 64 108 2.0 6.0 0.01 0.04 0.02 81 1010.6
20260503180504 64 68 3.0 6.0 0.01 0.04 0.02 81 1015.2
20260503180501 64 68 3.0 6.0 0.01 0.04 0.02 81 1010.6
20260503180005 65 83 3.0 5.0 0.00 0.03 0.02 80 1015.1
20260503180003 65 83 2.0 5.0 0.00 0.03 0.02 80 1010.6
20260503175600 65 86 2.0 5.0 0.00 0.03 0.02 79 1010.6
20260503175501 65 89 2.0 5.0 0.00 0.03 0.02 78 1015.1
20260503175100 65 68 2.0 5.0 0.00 0.03 0.02 78 1010.5
20260503175001 66 94 2.0 5.0 0.00 0.03 0.02 78 1015.0
20260503174620 66 167 1.0 4.0 0.00 0.03 0.02 78 1010.4
20260503174501 66 85 1.0 4.0 0.00 0.03 0.02 78 1014.9
20260503174100 66 64 1.0 2.0 0.00 0.03 0.02 78 1010.2
20260503174003 66 108 1.0 2.0 0.00 0.03 0.02 78 1014.7
20260503173600 66 92 1.0 2.0 0.00 0.03 0.02 77 1010.3
20260503173501 66 49 1.0 2.0 0.00 0.03 0.02 77 1014.8
20260503173107 66 78 0.0 2.0 0.00 0.03 0.02 77 1010.3
20260503173001 66 71 0.0 2.0 0.00 0.03 0.02 76 1014.8
20260503172601 66 76 0.0 1.0 0.00 0.03 0.02 77 1010.4
20260503172501 66 76 0.0 1.0 0.00 0.03 0.02 77 1014.9
20260503172100 66 72 0.0 2.0 0.00 0.03 0.02 76 1010.3
20260503172003 66 74 0.0 2.0 0.00 0.03 0.02 76 1014.9
20260503171604 66 70 1.0 4.0 0.00 0.03 0.02 75 1010.3
20260503171501 66 65 1.0 4.0 0.00 0.03 0.02 76 1014.9
20260503171103 66 60 1.0 4.0 0.00 0.03 0.02 76 1010.4
20260503171001 66 103 1.0 4.0 0.00 0.03 0.02 75 1014.9
20260503170600 66 75 1.0 3.0 0.00 0.03 0.02 75 1010.4